Weather in Shelopugino

Russia / Zabaykalsky Krai     51°39′01″N   117°33′22″E
temp.,
°C
wind,
m/s
gust,
m/s
humid.,
%
clouds,
%
prec.,
mm/h
press.,
hPa
HPBL,
m
25 may, wed
wed2500:00+10nnw11395 0.0 101810
03:00+8sw114660 0.0 101910
06:00+8w1149100 0.0 102010
09:00+16wnw113665 0.0 1019418
12:00+21n23275 0.0 10161889
15:00+23n45215 0.0 10132643
18:00+22nnw46215 0.0 10102737
21:00+16sw113520 0.0 101011
26 may, thu
thu2600:00+12sw11405 0.0 101010
03:00+9sw11443 0.0 100910
06:00+9sw11485 0.0 100910
09:00+17sw12335 0.0 1007296
12:00+23wsw35210 0.0 10032748
15:00+25wsw671812 0.0 9993527
18:00+24wsw5824100 0.0 9973446
21:00+17sw3335100 0.0 99616
27 may, fri
fri2700:00+13s333619 0.0 99419
03:00+11ssw2239100 0.0 99314
06:00+11wsw41148100 0.0 992341
09:00+15wnw794670 0.0 9921291
12:00+18wnw683493 0.0 9913024
15:00+16n693680 0.0 9912398
18:00+16nnw692736 0.0 9912964
21:00+11nnw6114259 0.0 994495
28 may, sat
sat2800:00+6nw495751 0.1 997274
03:00+2wnw36735 0.1 999178
06:00+2wnw410695 0.0 999700
09:00+6nw685484 0.0 9981340
12:00+8wnw6842100 0.0 9981909
15:00+12nw6834100 0.0 9972748
18:00+12nnw573796 0.0 9972143
21:00+7n225315 0.0 99922
29 may, sun
sun2900:00+5nw256296 0.0 1001108
03:00+2w11855 0.1 100210
06:00+2wsw22875 0.0 100329
09:00+7wnw345811 0.0 1002991
12:00+10nw4445100 0.1 10012010
15:00+11nnw4443100 0.2 10002075
18:00+11nnw3441100 0.0 10001746
21:00+6nnw22687 0.0 100215